FENGYUN 1C DEB, 30345

Orbit data source: Space-Track

FENGYUN 1C DEB, 30345 is space debris in SSO originally from a launch on Mon, 10 May 1999 UTC launched from the Taiyaun Space Center, China (TSC). Fengyun 1C debris stems from the Chinese weather satellite Fengyun-1C, which was intentionally destroyed by a Chinese anti-satellite missile in 2007. This event dramatically increased the amount of space debris, with thousands of trackable fragments posing hazards to satellites and human spaceflight. The Fengyun 1C debris cloud has become a focal point in discussions about space sustainability and the need for international regulations to prevent the creation of new debris.

Loading next visibility...
Identifier
30345, 1999-025ABG
Orbit
SSO
Country
Flag of CNCN / PRC
Related business
Manufacturer
Unknown
Mission
Spacecraft
Bus & Motor
Unknown
Mass
Unknown
Launch date (UTC)
1999-05-10 (27 years ago)
Launch vehicle
Unknown
Launch site
Taiyaun Space Center, China (TSC)
Object type
Payload
Rocket body
Debris
Shape & HBR
Unknown shape, 0.1 m
Radar Cross Section
Medium (>0.1 m² and <1 m²)

Expand to show TLE details & history
Last TLE update: 6 hours ago

TLE from 6 hours ago
0 FENGYUN 1C DEB
1 30345U 99025ABG 26166.17977125  .00004335  00000-0  12799-2 0  9995
2 30345  98.9090 238.9310 0017208  66.7483 293.5516 14.43976813  4348
Epoch: 2026-06-15T04:18Z
TLE epoch observation values (Epoch: 2026-06-15T04:18:52.235Z)
Latitude
0.00003°
Longitude
-89.25652°
Altitude
743.449 km
Speed
7.486 km/s
True Right ascension
15h 55m 43s
True Declination
0° 00' 00"
Sunlit
Object was in full shadow at epoch
Visualization orbit readout
Latitude
Unknown
Longitude
Unknown
Altitude
Unknown
Speed
Unknown
Apparent Right ascension
Unknown
Apparent Declination
Unknown
Sunlit
N/A
Visualization observer readout
Local Sidereal Time
20:34:47
Azimuth
Unknown
Elevation
Unknown
Doppler factor
Unknown
Orbital elements
Apogee altitude
754.779 km
Perigee altitude
730.272 km
Semi-major axis
7,120.663 km
Eccentricity
0.00172
Inclination
98.909°
RAAN
238.931°
Arg. of periapsis
66.7483°
True anomaly
293.37068°
Mean anomaly
293.5516°
Eccentric anomaly
293.46116°
Mean motion
3.61212 °/min
Orbital period
99.66 mins
BSTAR
0.0012799
Loading maneuver chart data...
Computing Atmospheric mass density...

Documentation

Showing up to 5 results
|